Location: StarHub Observatory
(35.2598°N, 77.5855°W)
Time: 10:58:55
(UTC-05:00)

Tiangong - Pass Details

Date: 11 December 2021
Orbit: 383 x 386 km, 41.5° (Epoch: 19 January)

Event Time Altitude Azimuth Distance (km) Brightness Sun altitude
Rises 18:32:25 0° 278° (W) 2,275 6.2 -18.6°
Reaches altitude 10° 18:34:40 10° 290° (WNW) 1,418 4.7 -19.1°
Enters shadow 18:37:18 28° 345° (NNW) 770 2.5 -19.6°
